{"data":{"norad_id":52361,"intl_designator":"2022-045AG","name":"STARLINK-3728","alt_names":[],"object_type":"PAYLOAD","status":"ACTIVE","operator":null,"country":"US","launch_date":"2022-04-29","launch_site_code":"AFETR","launch_vehicle":null,"mission":null,"orbit_class":"UNKNOWN","rcs_meters":null,"size_class":null,"mass_kg":null,"dimensions":null,"purposes":["comms"],"wikipedia_slug":null,"has_3d_model":false,"image_url":null,"decayed_at":null,"tle_current":{"epoch":"2026-09-19T23:40:52.741056Z","epoch_age_seconds":104044,"freshness":"FRESH","line1":"1 52361U 22045AG  26262.98672154  .00001576  00000+0  56066-4 0  9995","line2":"2 52361  53.1608  31.8583 0001092  81.7129 278.3998 15.35399524245328","mean_motion":15.35399524,"eccentricity":0.0001092,"inclination_deg":53.1608,"raan_deg":31.8583,"arg_perigee_deg":81.7129,"mean_anomaly_deg":278.3998,"bstar":5.6066e-5,"rev_number":24532,"period_min":93.786664479909,"perigee_km":458.98736045906,"apogee_km":460.48075149769,"semimajor_km":6837.8710559784,"source":"CELESTRAK","updated_at":"2026-09-20T09:00:40.026476Z"}}}